Wind_Speed
14 14 14 14 15 15 15 15 15 14 14 12 11 10 9 9 8 7 6 6 5 5 5 5 6 7 7 7 8 8 8 8 8 7 7 8 8 7 7 7 6 5 5 5 4 3 3 3 3
13 13 14 15 16 16 16 15 15 14 14 13 12 11 10 9 8 8 7 6 5 5 6 6 6 7 8 8 9 9 8 8 8 7 7 7 6 6 7 7 6 5 4 4 4 2 2 2 2
13 13 14 15 16 16 16 15 15 15 14 13 12 11 11 9 8 8 7 7 6 6 7 7 7 7 8 9 10 9 9 8 8 7 6 6 6 6 7 7 6 5 4 4 3 2 1 1 1
13 14 14 15 16 16 17 16 15 15 14 13 12 12 11 10 8 8 8 7 7 7 7 8 8 8 8 9 9 9 8 8 8 7 6 7 6 6 6 5 5 5 4 4 3 2 1 1 0
13 14 15 15 16 16 16 16 16 15 14 13 13 12 12 10 9 8 8 8 7 7 7 8 9 9 9 9 9 9 8 8 8 7 7 6 6 5 5 6 5 4 4 4 3 2 1 1 0
14 14 15 16 17 16 16 16 16 15 14 13 13 13 12 11 10 9 9 8 8 7 7 8 9 9 9 9 9 8 8 7 7 6 6 5 6 5 4 5 4 4 3 3 2 2 1 0 0
14 15 16 16 16 16 16 16 17 16 15 14 13 13 11 11 10 9 9 8 8 8 8 8 9 9 9 9 9 9 8 7 7 6 6 5 5 4 4 4 3 3 3 3 2 1 1 1 1
13 14 16 16 16 17 16 16 16 15 14 14 13 13 12 11 10 10 9 9 9 9 9 10 9 10 11 10 9 9 8 8 7 6 6 5 5 4 4 4 3 3 3 2 1 0 1 1 1
13 14 16 16 16 17 16 16 16 14 14 13 13 14 14 12 12 11 11 11 11 11 11 11 11 11 11 11 10 9 8 7 7 6 5 4 4 4 4 4 3 2 1 1 1 1 2 2 1
12 14 16 16 16 16 17 17 16 14 14 14 14 14 14 14 13 13 12 12 12 12 12 12 12 12 11 11 10 9 8 7 6 5 5 4 4 4 4 4 3 2 1 1 2 2 2 2 2
12 14 15 15 16 16 16 16 16 15 14 14 14 14 14 14 14 13 13 13 13 12 13 13 13 12 12 11 10 9 8 7 6 5 5 4 4 4 5 4 3 2 1 1 1 2 2 2 2
12 13 14 15 16 16 16 16 16 16 15 15 14 14 13 14 14 14 13 14 13 13 13 13 13 12 12 11 10 9 8 7 6 5 4 4 4 4 4 4 3 2 1 1 1 1 2 2 1
11 13 13 14 15 16 16 16 16 16 16 14 14 13 13 13 13 13 13 13 13 13 13 13 13 12 11 10 10 9 8 7 7 6 5 4 4 4 4 4 3 2 2 1 1 0 0 0 1
10 11 12 13 14 15 15 16 16 15 14 14 14 14 13 12 12 13 13 13 13 13 13 13 12 12 11 10 9 9 8 7 7 6 5 5 4 4 4 3 3 2 2 1 1 1 1 1 1
9 10 11 12 13 14 14 15 14 13 13 12 13 13 13 12 12 12 13 13 12 12 12 12 12 12 11 11 10 9 8 7 7 6 5 5 5 5 5 5 5 3 2 1 1 1 1 1 2
6 8 10 10 12 12 12 13 13 12 11 11 12 12 13 13 13 12 12 12 12 11 11 11 11 11 11 10 9 9 8 8 7 7 6 6 6 6 6 6 5 4 3 3 3 2 3 3 3
5 6 8 9 10 11 11 11 11 11 10 10 11 11 11 12 12 12 11 11 11 11 10 10 10 10 10 9 9 9 8 8 7 7 7 7 6 6 6 5 5 4 4 4 4 3 3 3 3
3 3 5 6 7 8 9 10 10 9 9 9 10 10 11 11 11 11 11 10 10 9 9 9 9 9 9 9 9 9 8 8 7 7 7 6 6 6 5 4 4 4 4 4 3 3 3 3 3
5 3 3 3 4 6 8 8 9 9 9 9 9 9 10 10 10 10 10 9 9 8 8 9 9 8 8 8 8 8 7 7 7 7 6 6 5 5 5 4 4 4 4 3 4 4 3 3 3
6 4 2 2 3 4 6 7 8 8 8 8 9 10 10 10 10 10 9 9 8 7 7 8 8 7 7 7 7 8 7 7 7 7 6 5 5 5 4 4 4 4 4 4 4 4 4 4 4
7 6 4 2 2 2 3 3 5 6 6 8 8 8 9 9 8 8 8 9 9 7 7 6 7 6 6 6 6 6 6 6 6 6 6 5 5 5 5 4 4 3 4 4 4 4 5 5 4
10 8 7 5 4 3 2 2 3 4 5 6 7 7 7 8 8 7 7 7 7 7 6 6 6 6 6 5 5 5 5 5 5 5 5 5 5 4 3 4 4 3 3 4 4 5 5 5 5
12 10 9 7 6 5 3 1 1 2 3 4 5 5 5 5 6 6 6 6 6 5 4 5 5 5 6 6 5 4 5 5 5 5 5 5 5 4 3 3 3 3 3 4 4 5 5 5 6
14 12 11 10 8 7 6 4 2 0 1 1 3 4 4 4 4 5 5 5 5 4 4 4 4 4 4 5 4 4 4 4 4 4 4 4 4 4 3 3 3 4 4 4 5 5 6 6 6
15 14 13 12 10 8 7 7 4 3 2 2 2 3 3 3 3 3 3 3 4 4 3 2 2 2 3 3 3 3 3 3 3 3 3 4 4 4 3 3 4 4 4 5 6 6 7 7 7
17 15 14 13 12 10 9 8 6 5 4 3 3 3 4 3 3 3 2 2 2 2 1 1 1 2 2 3 3 3 3 3 3 3 3 4 4 4 4 5 5 5 5 6 7 7 8 8 9
19 18 17 15 13 12 11 9 8 7 6 5 5 5 5 4 4 4 4 3 2 2 2 2 2 3 3 4 4 3 3 3 3 3 4 5 5 5 6 6 6 6 6 7 8 8 9 10 10
22 20 19 18 17 14 12 10 9 9 8 7 6 6 7 6 6 6 6 5 4 4 4 3 3 4 5 5 5 5 4 4 4 5 5 6 6 6 7 7 7 7 7 8 9 9 10 10 10
23 22 21 21 19 17 14 12 10 10 9 9 8 8 8 8 8 8 7 7 6 6 5 5 5 5 6 6 7 6 6 6 6 7 7 8 8 8 8 8 9 9 9 10 10 11 11 11 12
25 24 24 23 21 19 18 15 13 11 11 10 10 9 10 10 10 9 8 8 8 8 7 7 7 8 8 8 8 8 8 8 8 8 9 9 10 10 10 11 11 11 12 12 13 13 13 13 13
Wind_Direction
69 73 74 72 72 70 66 64 64 63 62 59 61 65 66 67 69 72 72 71 77 85 93 110 131 133 133 132 130 119 113 110 114 116 119 123 122 120 120 129 134 129 133 130 123 119 107 95 91
70 72 75 75 73 70 67 66 63 63 61 62 64 64 65 67 67 68 70 75 85 96 98 104 121 128 132 127 126 121 118 112 113 117 120 126 128 125 125 128 131 132 134 134 128 128 120 108 96
70 75 75 76 72 71 70 66 64 62 61 63 64 64 64 66 66 68 72 81 88 97 102 109 113 118 125 127 128 126 124 119 118 122 124 127 125 125 130 132 130 130 128 133 139 152 145 125 92
74 77 76 75 73 73 70 68 67 64 61 62 63 64 63 63 63 68 75 85 92 102 107 107 107 113 119 126 129 129 127 123 121 120 118 121 117 120 130 134 133 133 130 133 142 153 160 143 76
79 76 76 77 75 71 68 68 67 64 63 63 64 65 61 60 63 67 76 86 93 102 106 109 113 116 121 124 129 130 129 127 124 117 110 110 111 116 127 136 131 133 138 140 146 149 144 139 135
75 76 77 76 73 70 69 67 66 62 62 62 65 67 63 61 66 69 76 82 92 102 106 112 117 120 122 127 128 128 126 125 123 120 116 112 110 114 116 137 132 137 145 144 146 143 150 172 306
76 78 78 75 73 69 67 65 63 61 63 63 66 68 63 61 66 72 74 75 88 99 105 109 116 118 121 127 127 126 126 127 123 119 118 118 120 121 116 127 130 138 141 146 144 153 150 315 318
77 79 79 76 72 67 65 64 61 61 62 61 62 62 63 63 67 71 73 78 85 90 99 107 115 120 119 121 122 124 127 123 122 118 118 119 126 134 132 126 127 129 134 147 162 152 278 302 320
78 78 81 79 74 68 66 64 62 60 60 60 61 61 63 66 68 71 73 78 87 93 98 105 113 118 117 117 117 118 124 122 120 116 117 121 129 140 141 138 141 150 145 193 239 252 259 274 283
80 81 83 82 78 70 66 64 62 60 59 61 62 64 62 64 68 70 74 79 86 94 99 102 109 112 112 113 114 115 119 118 114 110 109 114 127 128 136 136 135 135 161 232 271 294 283 269 256
82 85 87 84 79 72 66 63 63 60 60 61 64 64 64 64 66 68 74 81 87 91 97 102 105 109 108 109 111 111 113 114 114 111 105 101 106 123 133 133 127 130 163 243 288 302 284 271 275
89 89 90 86 80 74 68 64 63 62 61 62 65 66 67 67 67 71 75 82 87 89 91 96 102 107 108 106 105 104 105 107 106 101 100 91 95 112 131 136 127 125 149 226 278 282 282 284 285
93 92 92 88 82 75 68 63 63 61 60 59 64 68 71 72 71 73 77 81 88 92 93 97 101 104 103 102 101 99 96 96 92 91 96 97 91 93 113 121 129 129 126 108 95 59 96 100 337
101 96 95 92 83 75 68 62 61 58 59 59 62 67 69 72 75 76 80 84 89 93 93 95 101 102 102 100 100 95 91 88 89 88 89 85 79 77 89 106 107 120 123 114 99 68 48 78 85
109 97 93 90 83 74 67 63 61 57 58 60 60 65 70 72 76 79 81 85 88 93 96 95 95 96 96 95 93 92 88 83 82 84 84 79 73 72 79 92 96 100 101 83 60 59 75 84 76
111 99 92 83 80 75 70 63 59 59 59 62 63 66 69 73 75 79 82 84 87 88 91 93 94 94 94 91 87 87 84 79 77 78 79 84 83 78 80 82 84 81 82 74 67 74 67 53 42
119 98 86 78 77 75 73 66 59 61 62 63 65 66 68 73 75 76 79 81 84 86 87 88 91 92 91 86 81 79 78 79 78 76 76 83 84 78 78 80 75 71 67 66 64 62 56 41 30
145 117 94 78 76 77 74 69 63 58 60 64 65 66 69 73 76 74 75 77 80 81 84 84 85 86 85 82 79 76 78 78 73 71 75 79 79 73 73 73 68 70 67 58 55 55 42 32 29
183 162 124 97 85 86 81 70 63 58 59 63 65 68 70 73 75 75 75 76 75 77 80 82 81 85 84 81 76 74 76 77 74 75 77 73 72 70 63 66 65 70 61 52 48 44 36 34 31
204 195 175 118 113 97 86 78 64 59 61 63 65 68 71 74 73 72 72 69 73 76 81 80 79 82 82 81 75 71 71 73 72 67 68 64 59 64 65 60 60 67 56 46 38 32 27 24 17
204 209 211 207 179 149 109 86 70 61 61 59 62 68 71 74 72 72 70 66 71 77 81 83 75 72 72 78 75 70 73 71 68 63 56 55 55 58 64 59 48 51 50 44 33 23 19 15 6
218 223 221 214 210 196 163 94 75 69 67 57 55 65 70 71 73 70 67 63 65 73 78 76 71 68 68 71 69 68 69 64 61 58 56 54 48 44 53 47 36 35 34 27 15 9 6 4 359
222 227 226 219 221 226 225 226 94 76 73 56 45 54 59 63 72 70 68 61 58 64 71 71 67 64 61 65 65 65 60 56 55 56 50 45 42 35 34 32 27 16 15 5 357 355 356 353 345
225 230 234 235 236 237 236 247 235 223 67 24 24 30 33 42 67 67 65 59 55 59 73 78 68 62 58 56 52 52 55 56 52 46 33 26 28 26 18 9 2 350 351 349 346 345 346 342 340
226 230 235 241 243 240 234 248 259 243 258 293 333 359 2 5 28 44 51 50 50 54 63 70 67 60 47 38 32 31 38 43 36 21 9 2 7 3 351 342 337 336 335 335 335 335 335 332 331
228 231 236 245 246 240 235 244 251 248 258 273 287 298 314 326 336 352 4 21 29 30 33 30 18 355 3 6 3 2 6 10 7 356 347 342 340 341 333 327 329 326 323 326 327 328 324 321 320
227 232 237 243 246 245 243 247 250 244 256 266 275 283 293 303 308 319 330 334 332 328 321 320 323 319 321 323 317 322 322 322 327 332 334 330 327 321 314 320 323 319 317 320 321 320 319 318 316
229 233 238 242 246 250 245 248 254 249 261 266 275 284 290 288 294 297 305 307 302 303 302 298 306 305 307 312 307 304 305 304 304 313 316 316 316 313 310 315 315 312 311 315 317 316 317 316 315
230 233 237 243 245 249 250 250 252 252 259 264 270 280 284 283 288 292 294 297 291 294 293 285 288 300 301 302 299 296 298 299 299 301 302 303 305 308 310 311 308 306 304 306 309 311 312 312 313
232 235 239 243 245 248 252 252 254 257 260 263 267 273 279 284 285 285 285 288 285 285 289 287 290 295 296 295 293 288 286 291 293 295 296 297 300 302 305 305 305 302 300 300 302 304 304 306 307
Height
5875 5875 5875 5875 5874 5872 5870 5870 5869 5869 5868 5868 5867 5867 5867 5867 5867 5869 5867 5866 5866 5867 5867 5867 5867 5867 5868 5869 5870 5872 5873 5875 5876 5877 5878 5879 5880 5881 5882 5883 5884 5885 5885 5886 5886 5887 5887 5887 5887
5877 5877 5878 5877 5875 5873 5872 5871 5871 5870 5870 5869 5869 5868 5868 5867 5867 5867 5866 5866 5867 5867 5867 5867 5867 5868 5869 5870 5872 5873 5874 5876 5877 5878 5879 5880 5881 5882 5883 5884 5885 5885 5886 5887 5887 5887 5887 5887 5887
5880 5879 5880 5878 5876 5875 5874 5873 5872 5872 5872 5871 5870 5870 5869 5868 5868 5867 5867 5867 5867 5867 5868 5868 5869 5869 5870 5871 5873 5874 5875 5877 5878 5879 5880 5881 5882 5883 5884 5884 5885 5886 5887 5887 5887 5887 5887 5888 5888
5882 5882 5882 5880 5878 5877 5876 5875 5874 5874 5873 5873 5872 5871 5870 5869 5869 5868 5867 5867 5868 5868 5869 5869 5870 5871 5872 5873 5874 5875 5877 5878 5879 5880 5881 5882 5883 5884 5885 5885 5886 5887 5887 5888 5888 5888 5888 5888 5888
5885 5884 5883 5881 5880 5879 5878 5877 5876 5876 5875 5874 5874 5873 5871 5871 5870 5869 5868 5868 5869 5869 5869 5870 5871 5872 5873 5874 5875 5877 5878 5879 5880 5881 5882 5883 5884 5884 5885 5886 5887 5887 5888 5888 5888 5889 5889 5889 5888
5887 5886 5885 5883 5882 5881 5880 5879 5878 5877 5877 5876 5876 5874 5873 5872 5871 5870 5869 5869 5869 5869 5870 5870 5871 5873 5874 5875 5876 5878 5879 5880 5881 5882 5883 5884 5884 5885 5885 5886 5887 5888 5888 5888 5889 5889 5889 5889 5889
5890 5888 5886 5886 5885 5884 5883 5881 5880 5879 5879 5878 5877 5876 5875 5874 5873 5872 5871 5870 5870 5870 5871 5871 5872 5873 5875 5876 5877 5879 5880 5881 5882 5883 5884 5884 5885 5885 5886 5886 5887 5888 5888 5889 5889 5889 5889 5889 5888
5891 5891 5889 5888 5887 5886 5885 5883 5882 5882 5881 5880 5879 5878 5877 5876 5874 5873 5872 5871 5871 5871 5871 5872 5873 5875 5876 5877 5879 5880 5881 5882 5883 5884 5884 5885 5885 5886 5886 5887 5888 5888 5889 5889 5889 5889 5889 5889 5888
5893 5893 5890 5890 5889 5888 5887 5886 5885 5884 5883 5882 5880 5880 5879 5877 5876 5875 5873 5872 5872 5873 5873 5874 5875 5876 5878 5879 5880 5881 5882 5883 5884 5884 5885 5885 5886 5886 5887 5887 5888 5888 5889 5889 5889 5889 5889 5889 5888
5895 5894 5893 5892 5891 5891 5890 5889 5888 5887 5886 5884 5882 5881 5880 5879 5878 5877 5875 5875 5875 5875 5875 5876 5877 5878 5880 5881 5882 5883 5884 5884 5885 5885 5886 5886 5886 5887 5887 5888 5888 5889 5889 5889 5889 5889 5889 5889 5889
5896 5896 5895 5894 5893 5893 5892 5891 5890 5889 5888 5887 5885 5884 5883 5882 5881 5879 5878 5878 5877 5877 5877 5878 5879 5880 5882 5883 5884 5884 5885 5885 5886 5886 5886 5887 5887 5887 5888 5888 5889 5889 5889 5889 5889 5889 5889 5888 5888
5898 5897 5897 5897 5896 5895 5894 5893 5893 5892 5891 5889 5888 5886 5885 5884 5883 5882 5882 5881 5880 5881 5881 5881 5882 5883 5884 5885 5885 5886 5886 5887 5887 5887 5887 5887 5888 5888 5888 5888 5889 5889 5890 5889 5889 5889 5889 5889 5888
5900 5900 5899 5899 5898 5897 5896 5895 5895 5894 5893 5892 5891 5889 5888 5887 5886 5885 5885 5884 5884 5884 5884 5884 5885 5885 5886 5887 5887 5887 5888 5888 5888 5888 5888 5888 5888 5889 5889 5889 5889 5890 5890 5890 5889 5889 5889 5889 5888
5902 5902 5901 5901 5900 5899 5898 5898 5897 5896 5895 5895 5894 5892 5891 5890 5889 5888 5888 5887 5887 5887 5887 5887 5887 5888 5888 5888 5889 5889 5889 5889 5889 5889 5889 5889 5889 5889 5889 5889 5889 5890 5890 5889 5889 5889 5889 5889 5888
5904 5904 5904 5903 5902 5901 5901 5900 5899 5899 5898 5897 5896 5895 5894 5893 5892 5891 5891 5890 5890 5889 5889 5889 5890 5890 5890 5890 5891 5891 5890 5890 5890 5890 5890 5890 5890 5890 5891 5890 5890 5890 5890 5890 5890 5890 5890 5889 5889
5905 5906 5906 5905 5904 5903 5904 5903 5902 5901 5900 5899 5898 5898 5897 5896 5895 5894 5893 5893 5892 5892 5892 5892 5892 5892 5892 5892 5892 5892 5892 5891 5891 5891 5891 5891 5891 5891 5891 5891 5891 5891 5890 5890 5890 5890 5890 5890 5889
5906 5907 5906 5907 5905 5905 5905 5904 5904 5903 5902 5901 5901 5900 5899 5898 5897 5897 5896 5895 5895 5895 5894 5894 5894 5894 5894 5894 5894 5894 5893 5893 5892 5892 5892 5892 5892 5892 5892 5892 5892 5892 5892 5891 5891 5891 5891 5890 5890
5907 5907 5907 5907 5907 5906 5906 5905 5905 5905 5904 5903 5902 5901 5900 5900 5899 5898 5898 5897 5897 5897 5897 5896 5896 5896 5896 5896 5895 5895 5895 5894 5894 5894 5894 5894 5894 5894 5894 5894 5894 5893 5893 5893 5892 5892 5891 5891 5890
5907 5908 5908 5908 5908 5908 5907 5907 5907 5906 5906 5905 5904 5903 5902 5901 5901 5900 5900 5899 5899 5899 5899 5898 5898 5898 5898 5897 5897 5897 5896 5896 5896 5895 5895 5895 5895 5895 5895 5895 5895 5894 5894 5894 5893 5892 5891 5891 5891
5907 5908 5909 5909 5909 5909 5909 5908 5908 5908 5907 5906 5905 5905 5904 5903 5902 5902 5901 5901 5901 5901 5900 5900 5900 5900 5899 5899 5899 5899 5898 5898 5898 5897 5897 5896 5896 5895 5895 5896 5895 5895 5895 5894 5893 5893 5892 5891 5891
5907 5908 5909 5909 5910 5910 5910 5910 5909 5909 5908 5908 5907 5906 5905 5904 5904 5903 5903 5902 5902 5902 5902 5902 5902 5901 5901 5900 5900 5900 5900 5899 5899 5898 5898 5897 5897 5896 5896 5896 5896 5896 5895 5895 5894 5893 5893 5892 5891
5907 5908 5908 5909 5909 5910 5911 5911 5911 5910 5909 5909 5908 5907 5906 5905 5905 5904 5904 5903 5903 5903 5903 5903 5903 5902 5902 5901 5901 5901 5900 5900 5900 5900 5899 5899 5898 5897 5897 5897 5897 5896 5896 5895 5895 5894 5893 5892 5891
5905 5907 5908 5908 5909 5909 5910 5910 5912 5910 5910 5910 5910 5909 5908 5907 5906 5905 5905 5904 5904 5904 5904 5903 5903 5903 5903 5902 5902 5902 5901 5901 5901 5901 5900 5899 5899 5898 5898 5897 5897 5897 5896 5895 5895 5894 5893 5892 5891
5904 5905 5906 5907 5908 5909 5909 5910 5911 5910 5910 5910 5910 5909 5908 5908 5907 5906 5906 5905 5905 5904 5904 5904 5904 5904 5903 5903 5903 5902 5902 5902 5902 5901 5901 5900 5899 5899 5898 5897 5897 5897 5896 5895 5894 5893 5892 5891 5890
5902 5904 5905 5905 5906 5907 5908 5908 5910 5910 5910 5910 5910 5909 5909 5908 5907 5907 5906 5906 5905 5905 5905 5904 5904 5904 5904 5903 5903 5903 5902 5902 5902 5901 5901 5900 5899 5899 5898 5897 5897 5896 5895 5895 5894 5893 5892 5890 5889
5899 5901 5903 5904 5904 5906 5906 5907 5909 5909 5909 5909 5909 5909 5908 5908 5907 5907 5906 5906 5905 5905 5905 5905 5904 5904 5904 5904 5903 5903 5902 5902 5901 5901 5900 5900 5899 5898 5898 5897 5896 5895 5895 5894 5893 5892 5891 5889 5888
5896 5898 5900 5902 5903 5904 5905 5906 5907 5908 5908 5908 5908 5908 5907 5907 5907 5906 5906 5905 5905 5905 5905 5904 5904 5904 5904 5903 5903 5902 5902 5901 5901 5900 5899 5899 5898 5898 5897 5896 5895 5894 5893 5892 5891 5890 5889 5888 5886
5893 5895 5897 5898 5899 5901 5903 5904 5905 5906 5906 5907 5907 5906 5906 5906 5906 5905 5905 5904 5904 5904 5904 5904 5903 5903 5903 5903 5902 5902 5901 5901 5900 5899 5899 5898 5897 5896 5896 5895 5894 5893 5892 5891 5890 5889 5887 5886 5885
5889 5891 5893 5895 5896 5898 5900 5904 5904 5904 5905 5905 5905 5905 5905 5904 5904 5904 5903 5903 5903 5903 5903 5902 5902 5902 5902 5901 5901 5900 5900 5900 5899 5898 5898 5897 5896 5895 5894 5894 5893 5891 5890 5889 5888 5887 5886 5884 5883
5884 5886 5889 5891 5893 5894 5896 5902 5901 5902 5902 5902 5903 5903 5903 5902 5902 5902 5902 5901 5901 5901 5901 5901 5901 5900 5900 5900 5899 5899 5898 5898 5897 5897 5896 5895 5894 5894 5893 5892 5891 5889 5888 5887 5886 5884 5883 5882 5880